星链-5355 (STARLINK-5355 )

导读 | 豆包AI

STARLINK-5355是美国太空探索技术公司(SpaceX)星链互联网星座的成员,于2023年6月23日发射升空。它属于星链项目中低轨卫星组网的一部分,主要承担全球低延迟宽带互联网覆盖任务,依托低轨道部署,为偏远地区、海上和空中提供互联网接入服务,扩展了星链星座的服务覆盖范围,进一步完善了星座的卫星网络布局。

Basic Information
目录编号:
57139
目录名称:
STARLINK-5355
国际标识:
2023-090AQ
轨道中心:
EARTH
卫星名称:
星链-5355
卫星全名:
星链-5355 (STARLINK-5355 )
卫星状态:
在轨 (已飞行1042 天)
发射日期:
2023-06-23 UTC
国别 :
美国 (US)
星等 :
--
Orbit Information
数据来源 国际轨道数据 AOE轨道数据
星历时间 2026-04-30T07:54:19+0800
15小时前
查看轨道信息
2026-04-26T17:00:00+0800
4天前
查看轨道信息
半长轴 6861.086km 6861.196km
偏心率 0.0001862 0.0001264
轨道倾角 43.004° 43.005°
近地点辐角 266.309° 247.936°
升交点赤经 333.282° 353.736°
平近点角 93.755° 335.502°
近地点 481.671km 482.191km
远地点 484.227km 483.927km
周期 94.265分钟 94.267分钟
每日圈数 15.276136 15.275767
Detailed Information
固有亮度:
5
最大亮度:
2.4
卫星平台:
Starlink v1.5
覆盖范围:
全球
运营商:
太空探索技术公司
运营商所在国:
美国
制造商(研发单位):
太空探索技术公司
制造商所在国:
美国
使用方式:
暂无
Satellite Introduction
星链(Starlink)计划是由太空探索技术公司(SpaceX)提出的一个巨型低轨卫星互联网星座项目,计划在2019年至2024年间在太空搭建由约1.2万颗卫星组成的“星链”网络,其中1584颗将部署在地球上空550千米处的近地轨道,并从2020年开始工作。该卫星仍在工作。
2D Orbit Map
3D Orbit Map
Orbit Altitude Analysis Chart
Orbit Inclination Analysis Chart
Orbit Comprehensive Analysis Chart
View Comprehensive Chart